Wetterdaten: Mittwoch, 11.09.2013
Datum Zeit Temperatur Luftfeuchte Luftdruck Regen Wind Richtung Richtung Taupunkt Windchill Windben
11.09.2013 00:00 6,3 C 96 % 1019,6 hPa 0,0 l/m 0,8 km/h (0 Bft) N-NO 22 5,7 C 6,2 C 2,4 km/h (1 Bft)
11.09.2013 00:05 6,3 C 96 % 1019,6 hPa 0,0 l/m 0,6 km/h (0 Bft) N 360 5,7 C 6,2 C 2,1 km/h (1 Bft)
11.09.2013 00:10 6,3 C 96 % 1019,6 hPa 0,0 l/m 0,5 km/h (0 Bft) W-SW 247 5,7 C 6,3 C 0,0 km/h (0 Bft)
11.09.2013 00:15 6,3 C 96 % 1019,6 hPa 0,0 l/m 0,8 km/h (0 Bft) O-SO 112 5,7 C 6,3 C 0,0 km/h (0 Bft)
11.09.2013 00:20 6,3 C 96 % 1019,4 hPa 0,0 l/m 0,8 km/h (0 Bft) S-SW 202 5,7 C 6,3 C 3,2 km/h (1 Bft)
11.09.2013 00:25 6,2 C 96 % 1019,4 hPa 0,0 l/m 0,3 km/h (0 Bft) S-SO 157 5,6 C 6,3 C 0,0 km/h (0 Bft)
11.09.2013 00:30 6,2 C 96 % 1019,4 hPa 0,0 l/m 0,3 km/h (0 Bft) S-SW 202 5,6 C 6,2 C 1,8 km/h (1 Bft)
11.09.2013 00:35 6,2 C 96 % 1019,4 hPa 0,0 l/m 0,2 km/h (0 Bft) W-SW 247 5,6 C 6,2 C 0,0 km/h (0 Bft)
11.09.2013 00:40 6,2 C 96 % 1019,6 hPa 0,0 l/m 0,2 km/h (0 Bft) W-SW 247 5,6 C 6,2 C 0,0 km/h (0 Bft)
11.09.2013 00:45 6,2 C 96 % 1019,6 hPa 0,0 l/m 0,0 km/h (0 Bft) SO 135 5,6 C 6,2 C 0,0 km/h (0 Bft)
11.09.2013 00:50 6,2 C 96 % 1019,6 hPa 0,0 l/m 0,0 km/h (0 Bft) SO 135 5,6 C 6,1 C 0,0 km/h (0 Bft)
11.09.2013 00:55 6,2 C 96 % 1019,6 hPa 0,0 l/m 0,2 km/h (0 Bft) O-NO 67 5,6 C 6,1 C 1,9 km/h (1 Bft)
11.09.2013 01:00 6,2 C 96 % 1019,5 hPa 0,0 l/m 0,3 km/h (0 Bft) N-NW 337 5,6 C 6,1 C 0,0 km/h (0 Bft)
11.09.2013 01:05 6,2 C 96 % 1019,5 hPa 0,0 l/m 0,8 km/h (0 Bft) SW 225 5,6 C 6,2 C 0,0 km/h (0 Bft)
11.09.2013 01:10 6,2 C 96 % 1019,5 hPa 0,0 l/m 0,8 km/h (0 Bft) NO 45 5,6 C 6,2 C 3,9 km/h (1 Bft)
11.09.2013 01:15 6,2 C 96 % 1019,5 hPa 0,0 l/m 0,3 km/h (0 Bft) S 180 5,6 C 6,2 C 0,0 km/h (0 Bft)
11.09.2013 01:20 6,2 C 96 % 1019,4 hPa 0,0 l/m 0,2 km/h (0 Bft) S-SW 202 5,6 C 6,2 C 0,0 km/h (0 Bft)
11.09.2013 01:25 6,3 C 96 % 1019,4 hPa 0,0 l/m 0,0 km/h (0 Bft) S-SO 157 5,7 C 6,3 C 0,0 km/h (0 Bft)
11.09.2013 01:30 6,3 C 96 % 1019,4 hPa 0,0 l/m 0,0 km/h (0 Bft) NO 45 5,7 C 6,3 C 0,0 km/h (0 Bft)
11.09.2013 01:35 6,4 C 96 % 1019,4 hPa 0,0 l/m 0,0 km/h (0 Bft) W 270 5,8 C 6,3 C 0,0 km/h (0 Bft)
11.09.2013 01:40 6,4 C 96 % 1019,3 hPa 0,0 l/m 0,0 km/h (0 Bft) W-NW 292 5,8 C 6,4 C 1,6 km/h (1 Bft)
11.09.2013 01:45 6,4 C 96 % 1019,3 hPa 0,0 l/m 0,6 km/h (0 Bft) N-NW 337 5,8 C 6,4 C 3,1 km/h (1 Bft)
11.09.2013 01:50 6,4 C 96 % 1019,3 hPa 0,0 l/m 1,0 km/h (0 Bft) NW 315 5,8 C 6,4 C 0,0 km/h (0 Bft)
11.09.2013 01:55 6,1 C 96 % 1019,3 hPa 0,0 l/m 0,5 km/h (0 Bft) O-SO 112 5,5 C 6,2 C 0,0 km/h (0 Bft)
11.09.2013 02:00 6,0 C 96 % 1019,2 hPa 0,0 l/m 0,2 km/h (0 Bft) S-SW 202 5,4 C 6,1 C 0,0 km/h (0 Bft)
11.09.2013 02:05 5,8 C 97 % 1019,2 hPa 0,0 l/m 0,2 km/h (0 Bft) W-SW 247 5,4 C 5,9 C 0,0 km/h (0 Bft)
11.09.2013 02:10 6,0 C 96 % 1019,2 hPa 0,0 l/m 0,5 km/h (0 Bft) S 180 5,4 C 5,9 C 1,6 km/h (1 Bft)
11.09.2013 02:15 6,0 C 96 % 1019,2 hPa 0,0 l/m 0,6 km/h (0 Bft) O-SO 112 5,4 C 5,9 C 1,8 km/h (1 Bft)
11.09.2013 02:20 5,9 C 97 % 1019,1 hPa 0,0 l/m 0,5 km/h (0 Bft) O-SO 112 5,5 C 5,9 C 0,0 km/h (0 Bft)
11.09.2013 02:25 5,8 C 97 % 1019,1 hPa 0,0 l/m 1,4 km/h (1 Bft) S 180 5,4 C 5,9 C 0,0 km/h (0 Bft)
11.09.2013 02:30 5,8 C 97 % 1019,1 hPa 0,0 l/m 1,1 km/h (1 Bft) S-SO 157 5,4 C 5,9 C 4,8 km/h (1 Bft)
11.09.2013 02:35 6,0 C 96 % 1019,1 hPa 0,0 l/m 0,5 km/h (0 Bft) N-NO 22 5,4 C 5,9 C 0,0 km/h (0 Bft)
11.09.2013 02:40 6,0 C 96 % 1018,9 hPa 0,0 l/m 0,3 km/h (0 Bft) W 270 5,4 C 5,9 C 0,0 km/h (0 Bft)
11.09.2013 02:45 6,0 C 96 % 1018,9 hPa 0,0 l/m 0,0 km/h (0 Bft) NW 315 5,4 C 6,0 C 0,0 km/h (0 Bft)
11.09.2013 02:50 6,2 C 96 % 1018,9 hPa 0,0 l/m 0,3 km/h (0 Bft) O-SO 112 5,6 C 6,1 C 0,0 km/h (0 Bft)
11.09.2013 02:55 6,2 C 96 % 1018,9 hPa 0,0 l/m 0,5 km/h (0 Bft) O-SO 112 5,6 C 6,2 C 0,0 km/h (0 Bft)
11.09.2013 03:00 6,3 C 96 % 1018,9 hPa 0,0 l/m 0,3 km/h (0 Bft) O-SO 112 5,7 C 6,2 C 0,0 km/h (0 Bft)
11.09.2013 03:05 6,2 C 96 % 1018,9 hPa 0,0 l/m 0,0 km/h (0 Bft) W-SW 247 5,6 C 6,2 C 0,0 km/h (0 Bft)
11.09.2013 03:10 6,2 C 96 % 1018,9 hPa 0,0 l/m 0,0 km/h (0 Bft) W 270 5,6 C 6,2 C 0,0 km/h (0 Bft)
11.09.2013 03:15 6,3 C 96 % 1018,9 hPa 0,0 l/m 0,0 km/h (0 Bft) SW 225 5,7 C 6,3 C 1,6 km/h (1 Bft)
11.09.2013 03:20 6,3 C 96 % 1018,9 hPa 0,0 l/m 0,2 km/h (0 Bft) NO 45 5,7 C 6,4 C 0,0 km/h (0 Bft)
11.09.2013 03:25 6,4 C 96 % 1018,9 hPa 0,0 l/m 0,5 km/h (0 Bft) S-SW 202 5,8 C 6,4 C 0,0 km/h (0 Bft)
11.09.2013 03:30 6,4 C 96 % 1018,9 hPa 0,0 l/m 0,3 km/h (0 Bft) S 180 5,8 C 6,4 C 1,9 km/h (1 Bft)
11.09.2013 03:35 6,5 C 96 % 1018,9 hPa 0,0 l/m 0,3 km/h (0 Bft) O-NO 67 5,9 C 6,4 C 2,4 km/h (1 Bft)
11.09.2013 03:40 6,5 C 96 % 1018,8 hPa 0,0 l/m 0,6 km/h (0 Bft) N-NO 22 5,9 C 6,4 C 2,7 km/h (1 Bft)
11.09.2013 03:45 6,6 C 96 % 1018,8 hPa 0,0 l/m 1,1 km/h (1 Bft) SO 135 6,0 C 6,6 C 0,0 km/h (0 Bft)
11.09.2013 03:50 6,6 C 96 % 1018,8 hPa 0,0 l/m 1,4 km/h (1 Bft) NO 45 6,0 C 6,6 C 2,6 km/h (1 Bft)
11.09.2013 03:55 6,7 C 96 % 1018,8 hPa 0,0 l/m 1,0 km/h (0 Bft) O 90 6,1 C 6,7 C 0,0 km/h (0 Bft)
11.09.2013 04:00 6,7 C 96 % 1018,7 hPa 0,0 l/m 0,6 km/h (0 Bft) S 180 6,1 C 6,7 C 0,0 km/h (0 Bft)
11.09.2013 04:05 6,7 C 96 % 1018,7 hPa 0,0 l/m 0,0 km/h (0 Bft) O-NO 67 6,1 C 6,7 C 0,0 km/h (0 Bft)
11.09.2013 04:10 6,7 C 96 % 1018,7 hPa 0,0 l/m 0,0 km/h (0 Bft) NO 45 6,1 C 6,7 C 0,0 km/h (0 Bft)
11.09.2013 04:15 6,8 C 96 % 1018,7 hPa 0,0 l/m 0,6 km/h (0 Bft) S 180 6,2 C 6,7 C 4,5 km/h (1 Bft)
11.09.2013 04:20 6,8 C 96 % 1018,8 hPa 0,0 l/m 1,4 km/h (1 Bft) O-SO 112 6,2 C 6,7 C 2,6 km/h (1 Bft)
11.09.2013 04:25 6,7 C 96 % 1018,8 hPa 0,0 l/m 1,8 km/h (1 Bft) NO 45 6,1 C 6,7 C 2,6 km/h (1 Bft)
11.09.2013 04:30 6,7 C 96 % 1018,8 hPa 0,0 l/m 1,4 km/h (1 Bft) NO 45 6,1 C 6,7 C 2,1 km/h (1 Bft)
11.09.2013 04:35 6,9 C 96 % 1018,8 hPa 0,0 l/m 1,4 km/h (1 Bft) S-SO 157 6,3 C 6,8 C 1,9 km/h (1 Bft)
11.09.2013 04:40 7,0 C 96 % 1018,8 hPa 0,0 l/m 1,8 km/h (1 Bft) O-NO 67 6,4 C 6,9 C 5,5 km/h (1 Bft)
11.09.2013 04:45 7,0 C 96 % 1018,8 hPa 0,7 l/m 1,8 km/h (1 Bft) S-SO 157 6,4 C 7,0 C 2,7 km/h (1 Bft)
11.09.2013 04:50 7,0 C 96 % 1018,8 hPa 0,0 l/m 1,4 km/h (1 Bft) S 180 6,4 C 7,0 C 5,8 km/h (2 Bft)
11.09.2013 04:55 7,0 C 96 % 1018,8 hPa 0,0 l/m 2,1 km/h (1 Bft) S 180 6,4 C 7,0 C 5,0 km/h (1 Bft)
11.09.2013 05:00 7,0 C 96 % 1018,8 hPa 0,0 l/m 2,6 km/h (1 Bft) S 180 6,4 C 7,0 C 6,9 km/h (2 Bft)
11.09.2013 05:05 7,0 C 96 % 1018,8 hPa 0,7 l/m 4,5 km/h (1 Bft) S-SW 202 6,4 C 6,7 C 5,5 km/h (1 Bft)
11.09.2013 05:10 7,0 C 96 % 1018,8 hPa 0,0 l/m 3,7 km/h (1 Bft) O 90 6,4 C 7,0 C 8,9 km/h (2 Bft)
11.09.2013 05:15 7,0 C 96 % 1018,8 hPa 0,0 l/m 1,8 km/h (1 Bft) S-SO 157 6,4 C 7,1 C 2,1 km/h (1 Bft)
11.09.2013 05:20 7,0 C 96 % 1018,6 hPa 0,7 l/m 1,4 km/h (1 Bft) S-SW 202 6,4 C 7,1 C 0,0 km/h (0 Bft)
11.09.2013 05:25 7,1 C 96 % 1018,6 hPa 0,0 l/m 1,8 km/h (1 Bft) S-SW 202 6,5 C 7,1 C 4,5 km/h (1 Bft)
11.09.2013 05:30 7,1 C 96 % 1018,6 hPa 0,0 l/m 1,9 km/h (1 Bft) O-SO 112 6,5 C 7,1 C 2,3 km/h (1 Bft)
11.09.2013 05:35 7,1 C 96 % 1018,6 hPa 0,0 l/m 2,4 km/h (1 Bft) S 180 6,5 C 7,2 C 0,0 km/h (0 Bft)
11.09.2013 05:40 7,0 C 96 % 1018,4 hPa 0,0 l/m 1,8 km/h (1 Bft) S 180 6,4 C 7,1 C 3,9 km/h (1 Bft)
11.09.2013 05:45 7,0 C 96 % 1018,4 hPa 0,0 l/m 2,4 km/h (1 Bft) S 180 6,4 C 7,0 C 3,2 km/h (1 Bft)
11.09.2013 05:50 7,0 C 96 % 1018,4 hPa 0,0 l/m 3,7 km/h (1 Bft) SO 135 6,4 C 7,0 C 10,3 km/h (2 Bft)
11.09.2013 05:55 7,1 C 96 % 1018,4 hPa 0,0 l/m 3,5 km/h (1 Bft) S-SO 157 6,5 C 7,1 C 6,3 km/h (2 Bft)
11.09.2013 06:00 7,1 C 96 % 1018,2 hPa 0,0 l/m 3,7 km/h (1 Bft) O-SO 112 6,5 C 7,0 C 6,1 km/h (2 Bft)
11.09.2013 06:05 6,9 C 96 % 1018,2 hPa 0,0 l/m 3,5 km/h (1 Bft) W-SW 247 6,3 C 6,9 C 2,3 km/h (1 Bft)
11.09.2013 06:10 6,8 C 96 % 1018,2 hPa 0,0 l/m 3,7 km/h (1 Bft) S 180 6,2 C 6,9 C 3,9 km/h (1 Bft)
11.09.2013 06:15 6,7 C 96 % 1018,2 hPa 0,0 l/m 3,5 km/h (1 Bft) SO 135 6,1 C 6,7 C 3,9 km/h (1 Bft)
11.09.2013 06:20 6,7 C 96 % 1018,1 hPa 0,0 l/m 2,9 km/h (1 Bft) O-SO 112 6,1 C 6,7 C 4,0 km/h (1 Bft)
11.09.2013 06:25 6,3 C 96 % 1018,1 hPa 0,0 l/m 2,3 km/h (1 Bft) S-SO 157 5,7 C 6,5 C 3,4 km/h (1 Bft)
11.09.2013 06:30 6,0 C 96 % 1018,1 hPa 0,0 l/m 1,9 km/h (1 Bft) S 180 5,4 C 6,2 C 3,1 km/h (1 Bft)
11.09.2013 06:35 5,8 C 97 % 1018,1 hPa 0,0 l/m 1,6 km/h (1 Bft) SO 135 5,4 C 5,9 C 2,7 km/h (1 Bft)
11.09.2013 06:40 5,7 C 97 % 1018,3 hPa 0,0 l/m 1,6 km/h (1 Bft) O-SO 112 5,3 C 5,8 C 1,6 km/h (1 Bft)
11.09.2013 06:45 5,5 C 97 % 1018,3 hPa 0,0 l/m 1,3 km/h (1 Bft) O 90 5,1 C 5,6 C 1,6 km/h (1 Bft)
11.09.2013 06:50 5,5 C 97 % 1018,3 hPa 0,0 l/m 1,0 km/h (0 Bft) NO 45 5,1 C 5,5 C 1,8 km/h (1 Bft)
11.09.2013 06:55 5,6 C 97 % 1018,3 hPa 0,0 l/m 1,1 km/h (1 Bft) O-SO 112 5,2 C 5,5 C 2,9 km/h (1 Bft)
11.09.2013 07:00 5,6 C 97 % 1018,3 hPa 0,0 l/m 1,0 km/h (0 Bft) O-SO 112 5,2 C 5,5 C 0,0 km/h (0 Bft)
11.09.2013 07:05 5,6 C 97 % 1018,3 hPa 0,0 l/m 0,8 km/h (0 Bft) O-SO 112 5,2 C 5,5 C 1,6 km/h (1 Bft)
11.09.2013 07:10 5,7 C 97 % 1018,3 hPa 0,0 l/m 0,3 km/h (0 Bft) S-SO 157 5,3 C 5,5 C 0,0 km/h (0 Bft)
11.09.2013 07:15 5,8 C 97 % 1018,3 hPa 0,0 l/m 0,2 km/h (0 Bft) S-SO 157 5,4 C 5,8 C 0,0 km/h (0 Bft)
11.09.2013 07:20 5,9 C 97 % 1018,0 hPa 0,0 l/m 0,0 km/h (0 Bft) O-SO 112 5,5 C 5,9 C 0,0 km/h (0 Bft)
11.09.2013 07:25 6,0 C 96 % 1018,0 hPa 0,0 l/m 0,0 km/h (0 Bft) NO 45 5,4 C 5,9 C 0,0 km/h (0 Bft)
11.09.2013 07:30 5,8 C 97 % 1018,0 hPa 0,0 l/m 0,0 km/h (0 Bft) NO 45 5,4 C 5,8 C 0,0 km/h (0 Bft)
11.09.2013 07:35 5,6 C 97 % 1018,0 hPa 0,0 l/m 0,0 km/h (0 Bft) O-SO 112 5,2 C 5,7 C 0,0 km/h (0 Bft)
11.09.2013 07:40 5,6 C 97 % 1018,2 hPa 0,0 l/m 0,0 km/h (0 Bft) O 90 5,2 C 5,7 C 0,0 km/h (0 Bft)
11.09.2013 07:45 5,7 C 97 % 1018,2 hPa 0,0 l/m 0,0 km/h (0 Bft) O-NO 67 5,3 C 5,8 C 0,0 km/h (0 Bft)
11.09.2013 07:50 5,7 C 97 % 1018,2 hPa 0,0 l/m 0,0 km/h (0 Bft) O-NO 67 5,3 C 5,7 C 0,0 km/h (0 Bft)
11.09.2013 07:55 5,6 C 97 % 1018,2 hPa 0,0 l/m 0,2 km/h (0 Bft) NW 315 5,2 C 5,7 C 0,0 km/h (0 Bft)
11.09.2013 08:00 5,9 C 97 % 1018,2 hPa 0,0 l/m 0,6 km/h (0 Bft) N-NO 22 5,5 C 5,8 C 0,0 km/h (0 Bft)
11.09.2013 08:05 5,9 C 97 % 1018,2 hPa 0,0 l/m 0,6 km/h (0 Bft) N-NO 22 5,5 C 6,0 C 0,0 km/h (0 Bft)
11.09.2013 08:10 9,0 C 96 % 1018,2 hPa 0,0 l/m 0,0 km/h (0 Bft) O 90 8,4 C 6,1 C 0,0 km/h (0 Bft)
11.09.2013 08:15 10,8 C 96 % 1018,2 hPa 0,0 l/m 0,0 km/h (0 Bft) O-SO 112 10,2 C 8,1 C 0,0 km/h (0 Bft)
11.09.2013 08:20 11,4 C 95 % 1018,1 hPa 0,0 l/m 0,0 km/h (0 Bft) O 90 10,6 C 9,7 C 0,0 km/h (0 Bft)
11.09.2013 08:25 11,7 C 95 % 1018,1 hPa 0,0 l/m 0,2 km/h (0 Bft) O 90 10,9 C 11,6 C 1,8 km/h (1 Bft)
11.09.2013 08:30 13,0 C 93 % 1018,1 hPa 0,0 l/m 0,2 km/h (0 Bft) S 180 11,9 C 12,5 C 2,6 km/h (1 Bft)
11.09.2013 08:35 12,2 C 92 % 1018,1 hPa 0,0 l/m 0,6 km/h (0 Bft) SW 225 10,9 C 13,0 C 2,3 km/h (1 Bft)
11.09.2013 08:40 11,6 C 91 % 1018,2 hPa 0,0 l/m 0,6 km/h (0 Bft) NO 45 10,2 C 13,5 C 0,0 km/h (0 Bft)
11.09.2013 08:45 9,5 C 90 % 1018,2 hPa 0,0 l/m 0,5 km/h (0 Bft) O-SO 112 7,9 C 13,9 C 0,0 km/h (0 Bft)
11.09.2013 08:50 11,9 C 89 % 1018,2 hPa 0,0 l/m 0,2 km/h (0 Bft) NO 45 10,1 C 14,6 C 0,0 km/h (0 Bft)
11.09.2013 08:55 13,0 C 81 % 1018,2 hPa 0,0 l/m 0,5 km/h (0 Bft) O-SO 112 9,8 C 14,8 C 1,8 km/h (1 Bft)
11.09.2013 09:00 13,5 C 79 % 1018,2 hPa 0,0 l/m 0,6 km/h (0 Bft) O 90 9,9 C 14,9 C 0,0 km/h (0 Bft)
11.09.2013 09:05 13,9 C 78 % 1018,2 hPa 0,0 l/m 1,3 km/h (1 Bft) S 180 10,1 C 15,0 C 6,8 km/h (2 Bft)
11.09.2013 09:10 13,9 C 77 % 1018,2 hPa 0,0 l/m 1,9 km/h (1 Bft) NO 45 9,9 C 14,9 C 2,6 km/h (1 Bft)
11.09.2013 09:15 14,1 C 76 % 1018,2 hPa 0,0 l/m 2,7 km/h (1 Bft) O-SO 112 9,9 C 15,0 C 2,4 km/h (1 Bft)
11.09.2013 09:20 14,2 C 72 % 1018,2 hPa 0,0 l/m 2,7 km/h (1 Bft) O-NO 67 9,2 C 15,0 C 4,8 km/h (1 Bft)
11.09.2013 09:25 14,2 C 72 % 1018,2 hPa 0,0 l/m 3,2 km/h (1 Bft) S 180 9,2 C 15,0 C 7,4 km/h (2 Bft)
11.09.2013 09:30 14,5 C 75 % 1018,2 hPa 0,0 l/m 3,4 km/h (1 Bft) SO 135 10,1 C 14,9 C 3,9 km/h (1 Bft)
11.09.2013 09:35 14,2 C 70 % 1018,2 hPa 0,0 l/m 3,1 km/h (1 Bft) SO 135 8,8 C 15,4 C 4,3 km/h (1 Bft)
11.09.2013 09:40 14,7 C 74 % 1018,2 hPa 0,0 l/m 2,9 km/h (1 Bft) S-SW 202 10,1 C 15,6 C 8,7 km/h (2 Bft)
11.09.2013 09:45 14,7 C 71 % 1018,2 hPa 0,0 l/m 3,5 km/h (1 Bft) W-NW 292 9,5 C 15,6 C 5,0 km/h (1 Bft)
11.09.2013 09:50 14,6 C 71 % 1018,2 hPa 0,0 l/m 3,9 km/h (1 Bft) S 180 9,4 C 15,6 C 2,4 km/h (1 Bft)
11.09.2013 09:55 14,9 C 71 % 1018,2 hPa 0,0 l/m 3,5 km/h (1 Bft) S 180 9,7 C 16,0 C 4,7 km/h (1 Bft)
11.09.2013 10:00 14,8 C 70 % 1018,6 hPa 0,0 l/m 3,9 km/h (1 Bft) SO 135 9,4 C 15,7 C 6,1 km/h (2 Bft)
11.09.2013 10:05 15,2 C 71 % 1018,6 hPa 0,0 l/m 4,7 km/h (1 Bft) O 90 10,0 C 15,8 C 2,9 km/h (1 Bft)
11.09.2013 10:10 14,7 C 70 % 1018,6 hPa 0,0 l/m 3,4 km/h (1 Bft) S-SO 157 9,3 C 16,3 C 2,7 km/h (1 Bft)
11.09.2013 10:15 15,5 C 69 % 1018,6 hPa 0,0 l/m 3,1 km/h (1 Bft) O-SO 112 9,8 C 16,8 C 4,3 km/h (1 Bft)
11.09.2013 10:20 15,3 C 65 % 1018,8 hPa 0,0 l/m 4,7 km/h (1 Bft) SO 135 8,8 C 16,4 C 13,0 km/h (3 Bft)
11.09.2013 10:25 15,4 C 66 % 1018,8 hPa 0,0 l/m 6,4 km/h (2 Bft) SO 135 9,1 C 16,0 C 9,3 km/h (2 Bft)
11.09.2013 10:30 15,8 C 68 % 1018,8 hPa 0,0 l/m 6,3 km/h (2 Bft) W-NW 292 9,9 C 16,0 C 13,0 km/h (3 Bft)
11.09.2013 10:35 16,3 C 64 % 1018,8 hPa 0,0 l/m 5,8 km/h (2 Bft) S-SW 202 9,5 C 16,2 C 7,7 km/h (2 Bft)
11.09.2013 10:40 16,6 C 61 % 1018,8 hPa 0,0 l/m 5,6 km/h (1 Bft) S-SO 157 9,0 C 16,2 C 8,0 km/h (2 Bft)
11.09.2013 10:45 16,6 C 60 % 1018,8 hPa 0,0 l/m 6,0 km/h (2 Bft) S 180 8,8 C 15,6 C 12,1 km/h (2 Bft)
11.09.2013 10:50 16,6 C 56 % 1018,8 hPa 0,0 l/m 6,4 km/h (2 Bft) W 270 7,8 C 15,1 C 17,7 km/h (3 Bft)
11.09.2013 10:55 16,5 C 54 % 1018,8 hPa 0,0 l/m 6,4 km/h (2 Bft) S 180 7,2 C 13,9 C 6,6 km/h (2 Bft)
11.09.2013 11:00 17,1 C 55 % 1018,8 hPa 0,0 l/m 6,3 km/h (2 Bft) SO 135 8,0 C 13,3 C 9,5 km/h (2 Bft)
11.09.2013 11:05 17,1 C 58 % 1018,8 hPa 0,0 l/m 6,1 km/h (2 Bft) O 90 8,8 C 13,0 C 10,5 km/h (2 Bft)
11.09.2013 11:10 17,3 C 53 % 1018,8 hPa 0,0 l/m 6,3 km/h (2 Bft) O-SO 112 7,6 C 13,2 C 9,0 km/h (2 Bft)
11.09.2013 11:15 17,7 C 50 % 1018,8 hPa 0,0 l/m 5,5 km/h (1 Bft) S 180 7,1 C 13,6 C 10,5 km/h (2 Bft)
11.09.2013 11:20 17,6 C 49 % 1019,5 hPa 0,0 l/m 6,4 km/h (2 Bft) S-SW 202 6,8 C 13,9 C 11,3 km/h (2 Bft)
11.09.2013 11:25 18,1 C 49 % 1019,5 hPa 0,0 l/m 6,9 km/h (2 Bft) S 180 7,2 C 14,4 C 11,3 km/h (2 Bft)
11.09.2013 11:30 18,1 C 45 % 1019,5 hPa 0,0 l/m 6,6 km/h (2 Bft) S 180 6,0 C 15,4 C 7,1 km/h (2 Bft)
11.09.2013 11:35 19,0 C 44 % 1019,5 hPa 0,0 l/m 6,8 km/h (2 Bft) O 90 6,5 C 16,8 C 5,8 km/h (2 Bft)
11.09.2013 11:40 19,0 C 40 % 1019,5 hPa 0,0 l/m 6,8 km/h (2 Bft) SW 225 5,1 C 17,7 C 9,0 km/h (2 Bft)
11.09.2013 11:45 17,9 C 40 % 1019,5 hPa 0,0 l/m 8,9 km/h (2 Bft) S 180 4,1 C 16,7 C 9,7 km/h (2 Bft)
11.09.2013 11:50 18,0 C 39 % 1019,5 hPa 0,0 l/m 9,3 km/h (2 Bft) NO 45 3,8 C 16,5 C 21,2 km/h (4 Bft)
11.09.2013 11:55 18,4 C 40 % 1019,5 hPa 0,0 l/m 7,1 km/h (2 Bft) S-SO 157 4,6 C 18,0 C 7,4 km/h (2 Bft)
11.09.2013 12:00 17,9 C 38 % 1019,4 hPa 0,0 l/m 7,9 km/h (2 Bft) S-SW 202 3,4 C 17,3 C 12,7 km/h (3 Bft)
11.09.2013 12:05 17,4 C 39 % 1019,4 hPa 0,0 l/m 8,5 km/h (2 Bft) S 180 3,3 C 16,7 C 21,1 km/h (4 Bft)
11.09.2013 12:10 17,6 C 39 % 1019,4 hPa 0,0 l/m 10,5 km/h (2 Bft) W-SW 247 3,5 C 15,0 C 9,8 km/h (2 Bft)
11.09.2013 12:15 17,9 C 40 % 1019,4 hPa 0,0 l/m 9,2 km/h (2 Bft) O 90 4,1 C 16,0 C 2,1 km/h (1 Bft)
11.09.2013 12:20 17,9 C 41 % 1019,2 hPa 0,0 l/m 8,4 km/h (2 Bft) S-SO 157 4,5 C 16,8 C 8,4 km/h (2 Bft)
11.09.2013 12:25 17,4 C 39 % 1019,2 hPa 0,0 l/m 8,0 km/h (2 Bft) S 180 3,3 C 17,1 C 11,1 km/h (2 Bft)
11.09.2013 12:30 17,3 C 39 % 1019,2 hPa 0,0 l/m 9,7 km/h (2 Bft) S 180 3,2 C 16,2 C 7,4 km/h (2 Bft)
11.09.2013 12:35 17,8 C 42 % 1019,2 hPa 0,0 l/m 10,0 km/h (2 Bft) O-SO 112 4,7 C 16,4 C 16,9 km/h (3 Bft)
11.09.2013 12:40 16,8 C 41 % 1019,2 hPa 0,0 l/m 10,1 km/h (2 Bft) S-SW 202 3,5 C 16,1 C 19,8 km/h (3 Bft)
11.09.2013 12:45 17,0 C 43 % 1019,2 hPa 0,0 l/m 11,1 km/h (2 Bft) SO 135 4,3 C 15,4 C 14,3 km/h (3 Bft)
11.09.2013 12:50 16,4 C 44 % 1019,2 hPa 0,0 l/m 11,1 km/h (2 Bft) S-SW 202 4,1 C 15,2 C 6,9 km/h (2 Bft)
11.09.2013 12:55 16,0 C 43 % 1019,2 hPa 0,0 l/m 10,0 km/h (2 Bft) S 180 3,4 C 15,8 C 15,0 km/h (3 Bft)
11.09.2013 13:00 15,2 C 48 % 1019,2 hPa 0,0 l/m 8,7 km/h (2 Bft) SW 225 4,3 C 15,8 C 6,8 km/h (2 Bft)
11.09.2013 13:05 16,2 C 45 % 1019,2 hPa 0,0 l/m 9,2 km/h (2 Bft) S-SW 202 4,3 C 15,8 C 14,2 km/h (3 Bft)
11.09.2013 13:10 16,7 C 46 % 1019,2 hPa 0,0 l/m 8,4 km/h (2 Bft) S-SW 202 5,0 C 16,7 C 6,9 km/h (2 Bft)
11.09.2013 13:15 16,4 C 45 % 1019,2 hPa 0,0 l/m 10,5 km/h (2 Bft) W-SW 247 4,4 C 16,2 C 11,6 km/h (2 Bft)
11.09.2013 13:20 15,4 C 47 % 1019,2 hPa 0,0 l/m 9,5 km/h (2 Bft) S 180 4,1 C 16,3 C 25,6 km/h (4 Bft)
11.09.2013 13:25 14,8 C 47 % 1019,2 hPa 0,0 l/m 9,0 km/h (2 Bft) S-SW 202 3,6 C 14,9 C 17,5 km/h (3 Bft)
11.09.2013 13:30 15,9 C 48 % 1019,2 hPa 0,0 l/m 10,0 km/h (2 Bft) S 180 4,9 C 14,8 C 12,6 km/h (3 Bft)
11.09.2013 13:35 16,7 C 46 % 1019,2 hPa 0,0 l/m 10,5 km/h (2 Bft) W-SW 247 5,0 C 15,9 C 11,3 km/h (2 Bft)
11.09.2013 13:40 16,0 C 46 % 1019,1 hPa 0,0 l/m 10,8 km/h (2 Bft) S 180 4,4 C 15,8 C 13,4 km/h (3 Bft)
11.09.2013 13:45 16,4 C 48 % 1019,1 hPa 0,0 l/m 9,8 km/h (2 Bft) SW 225 5,4 C 16,5 C 10,8 km/h (2 Bft)
11.09.2013 13:50 16,6 C 48 % 1019,1 hPa 0,0 l/m 9,8 km/h (2 Bft) S-SO 157 5,5 C 16,5 C 12,2 km/h (2 Bft)
11.09.2013 13:55 15,8 C 50 % 1019,1 hPa 0,0 l/m 10,1 km/h (2 Bft) S 180 5,4 C 16,3 C 13,5 km/h (3 Bft)
11.09.2013 14:00 15,7 C 52 % 1018,9 hPa 0,0 l/m 9,7 km/h (2 Bft) S-SW 202 5,9 C 15,9 C 10,0 km/h (2 Bft)
11.09.2013 14:05 14,8 C 53 % 1018,9 hPa 0,0 l/m 9,7 km/h (2 Bft) S-SO 157 5,3 C 14,6 C 6,9 km/h (2 Bft)
11.09.2013 14:10 14,6 C 53 % 1018,9 hPa 0,0 l/m 9,0 km/h (2 Bft) S-SW 202 5,1 C 14,3 C 10,9 km/h (2 Bft)
11.09.2013 14:15 14,4 C 55 % 1018,9 hPa 0,0 l/m 7,2 km/h (2 Bft) S 180 5,5 C 14,9 C 10,9 km/h (2 Bft)
11.09.2013 14:20 14,6 C 54 % 1018,8 hPa 0,0 l/m 8,2 km/h (2 Bft) S 180 5,4 C 14,2 C 7,9 km/h (2 Bft)
11.09.2013 14:25 15,7 C 50 % 1018,8 hPa 0,0 l/m 9,2 km/h (2 Bft) W-SW 247 5,3 C 14,8 C 7,2 km/h (2 Bft)
11.09.2013 14:30 15,4 C 51 % 1018,8 hPa 0,0 l/m 8,7 km/h (2 Bft) S-SW 202 5,3 C 15,7 C 10,1 km/h (2 Bft)
11.09.2013 14:35 16,3 C 49 % 1018,8 hPa 0,0 l/m 9,3 km/h (2 Bft) S 180 5,6 C 15,8 C 20,9 km/h (4 Bft)
11.09.2013 14:40 16,6 C 48 % 1018,8 hPa 0,0 l/m 9,8 km/h (2 Bft) S-SO 157 5,5 C 16,1 C 10,9 km/h (2 Bft)
11.09.2013 14:45 16,7 C 45 % 1018,8 hPa 0,0 l/m 10,6 km/h (2 Bft) S 180 4,7 C 16,4 C 10,8 km/h (2 Bft)
11.09.2013 14:50 16,3 C 47 % 1018,8 hPa 0,0 l/m 9,8 km/h (2 Bft) W-SW 247 5,0 C 16,9 C 14,2 km/h (3 Bft)
11.09.2013 14:55 15,4 C 48 % 1018,8 hPa 0,0 l/m 10,9 km/h (2 Bft) SO 135 4,4 C 16,1 C 10,5 km/h (2 Bft)
11.09.2013 15:00 15,2 C 51 % 1018,8 hPa 0,0 l/m 11,9 km/h (2 Bft) S 180 5,1 C 14,5 C 26,6 km/h (4 Bft)
11.09.2013 15:05 15,7 C 49 % 1018,8 hPa 0,0 l/m 10,1 km/h (2 Bft) S 180 5,0 C 14,8 C 14,2 km/h (3 Bft)
11.09.2013 15:10 15,8 C 48 % 1018,8 hPa 0,0 l/m 10,9 km/h (2 Bft) S 180 4,8 C 14,9 C 18,8 km/h (3 Bft)
11.09.2013 15:15 15,5 C 49 % 1018,8 hPa 0,0 l/m 12,1 km/h (2 Bft) NW 315 4,8 C 15,0 C 10,5 km/h (2 Bft)
11.09.2013 15:20 14,6 C 50 % 1018,6 hPa 0,0 l/m 11,7 km/h (2 Bft) W-SW 247 4,3 C 14,2 C 14,0 km/h (3 Bft)
11.09.2013 15:25 14,8 C 53 % 1018,6 hPa 0,0 l/m 11,6 km/h (2 Bft) S 180 5,3 C 13,7 C 13,5 km/h (3 Bft)
11.09.2013 15:30 15,0 C 53 % 1018,6 hPa 0,0 l/m 11,9 km/h (2 Bft) S 180 5,5 C 13,6 C 12,6 km/h (3 Bft)
11.09.2013 15:35 14,8 C 56 % 1018,6 hPa 0,0 l/m 11,3 km/h (2 Bft) S-SO 157 6,1 C 13,8 C 20,4 km/h (4 Bft)
11.09.2013 15:40 14,7 C 56 % 1018,8 hPa 0,0 l/m 10,9 km/h (2 Bft) S-SW 202 6,0 C 13,6 C 9,2 km/h (2 Bft)
11.09.2013 15:45 13,8 C 58 % 1018,8 hPa 0,0 l/m 12,2 km/h (2 Bft) S-SW 202 5,7 C 11,8 C 16,9 km/h (3 Bft)
11.09.2013 15:50 13,6 C 59 % 1018,8 hPa 0,0 l/m 11,1 km/h (2 Bft) W 270 5,7 C 11,7 C 11,7 km/h (2 Bft)
11.09.2013 15:55 13,6 C 59 % 1018,8 hPa 0,0 l/m 10,3 km/h (2 Bft) W-SW 247 5,7 C 11,8 C 14,8 km/h (3 Bft)
11.09.2013 16:00 13,4 C 59 % 1018,6 hPa 0,0 l/m 10,9 km/h (2 Bft) S 180 5,6 C 11,1 C 19,6 km/h (3 Bft)
11.09.2013 16:05 13,3 C 59 % 1018,6 hPa 0,0 l/m 11,9 km/h (2 Bft) SW 225 5,5 C 10,4 C 20,3 km/h (4 Bft)
11.09.2013 16:10 13,4 C 59 % 1018,6 hPa 0,0 l/m 10,9 km/h (2 Bft) SO 135 5,6 C 10,8 C 6,0 km/h (2 Bft)
11.09.2013 16:15 13,2 C 59 % 1018,6 hPa 0,0 l/m 10,1 km/h (2 Bft) W-SW 247 5,4 C 11,2 C 10,1 km/h (2 Bft)
11.09.2013 16:20 13,3 C 59 % 1018,4 hPa 0,0 l/m 10,0 km/h (2 Bft) W-SW 247 5,5 C 11,4 C 18,2 km/h (3 Bft)
11.09.2013 16:25 12,9 C 59 % 1018,4 hPa 0,0 l/m 11,1 km/h (2 Bft) S-SO 157 5,1 C 10,4 C 16,1 km/h (3 Bft)
11.09.2013 16:30 12,9 C 59 % 1018,4 hPa 0,0 l/m 12,1 km/h (2 Bft) S 180 5,1 C 9,7 C 20,1 km/h (4 Bft)
11.09.2013 16:35 12,7 C 61 % 1018,4 hPa 0,0 l/m 12,1 km/h (2 Bft) W-SW 247 5,4 C 9,6 C 14,0 km/h (3 Bft)
11.09.2013 16:40 12,8 C 61 % 1018,4 hPa 0,0 l/m 11,4 km/h (2 Bft) S 180 5,5 C 9,7 C 14,6 km/h (3 Bft)
11.09.2013 16:45 13,0 C 59 % 1018,4 hPa 0,0 l/m 10,3 km/h (2 Bft) S 180 5,2 C 10,8 C 11,1 km/h (2 Bft)
11.09.2013 16:50 13,0 C 58 % 1018,4 hPa 0,0 l/m 10,9 km/h (2 Bft) S-SW 202 4,9 C 10,9 C 9,2 km/h (2 Bft)
11.09.2013 16:55 13,3 C 59 % 1018,4 hPa 0,0 l/m 10,3 km/h (2 Bft) S 180 5,5 C 12,8 C 14,0 km/h (3 Bft)
11.09.2013 17:00 13,1 C 60 % 1018,6 hPa 0,0 l/m 9,3 km/h (2 Bft) S-SO 157 5,5 C 13,3 C 10,6 km/h (2 Bft)
11.09.2013 17:05 13,1 C 61 % 1018,6 hPa 0,0 l/m 8,4 km/h (2 Bft) W 270 5,8 C 13,1 C 10,0 km/h (2 Bft)
11.09.2013 17:10 12,6 C 61 % 1018,6 hPa 0,0 l/m 9,0 km/h (2 Bft) S 180 5,3 C 11,9 C 9,0 km/h (2 Bft)
11.09.2013 17:15 12,1 C 62 % 1018,6 hPa 0,0 l/m 10,9 km/h (2 Bft) S 180 5,0 C 9,5 C 8,5 km/h (2 Bft)
11.09.2013 17:20 11,8 C 64 % 1018,3 hPa 0,0 l/m 10,3 km/h (2 Bft) SO 135 5,2 C 9,3 C 12,2 km/h (2 Bft)
11.09.2013 17:25 11,7 C 66 % 1018,3 hPa 0,0 l/m 9,7 km/h (2 Bft) S-SO 157 5,6 C 8,8 C 11,6 km/h (2 Bft)
11.09.2013 17:30 11,6 C 68 % 1018,3 hPa 0,0 l/m 8,9 km/h (2 Bft) S 180 5,9 C 9,0 C 12,2 km/h (2 Bft)
11.09.2013 17:35 11,1 C 71 % 1018,3 hPa 0,0 l/m 9,2 km/h (2 Bft) SO 135 6,0 C 7,6 C 16,3 km/h (3 Bft)
11.09.2013 17:40 10,7 C 73 % 1018,4 hPa 0,0 l/m 9,7 km/h (2 Bft) S 180 6,1 C 6,7 C 8,5 km/h (2 Bft)
11.09.2013 17:45 10,5 C 75 % 1018,4 hPa 0,0 l/m 10,3 km/h (2 Bft) S 180 6,3 C 5,5 C 20,9 km/h (4 Bft)
11.09.2013 17:50 10,6 C 75 % 1018,4 hPa 0,0 l/m 10,1 km/h (2 Bft) S 180 6,4 C 5,8 C 18,2 km/h (3 Bft)
11.09.2013 17:55 10,6 C 77 % 1018,4 hPa 0,0 l/m 10,5 km/h (2 Bft) S-SO 157 6,7 C 5,7 C 9,8 km/h (2 Bft)
11.09.2013 18:00 10,5 C 79 % 1018,4 hPa 0,0 l/m 10,1 km/h (2 Bft) S 180 7,0 C 5,8 C 14,8 km/h (3 Bft)
11.09.2013 18:05 10,3 C 81 % 1018,4 hPa 0,0 l/m 8,7 km/h (2 Bft) SO 135 7,2 C 6,9 C 13,8 km/h (3 Bft)
11.09.2013 18:10 10,3 C 82 % 1018,4 hPa 0,0 l/m 8,4 km/h (2 Bft) S 180 7,4 C 7,3 C 6,9 km/h (2 Bft)
11.09.2013 18:15 10,2 C 82 % 1018,4 hPa 0,0 l/m 7,2 km/h (2 Bft) SO 135 7,3 C 8,6 C 6,8 km/h (2 Bft)
11.09.2013 18:20 10,1 C 81 % 1018,5 hPa 0,0 l/m 7,7 km/h (2 Bft) SO 135 7,0 C 8,3 C 10,9 km/h (2 Bft)
11.09.2013 18:25 10,0 C 83 % 1018,5 hPa 0,0 l/m 7,9 km/h (2 Bft) S-SO 157 7,2 C 7,8 C 10,0 km/h (2 Bft)
11.09.2013 18:30 9,8 C 82 % 1018,5 hPa 0,0 l/m 7,4 km/h (2 Bft) S-SO 157 6,9 C 7,7 C 26,9 km/h (4 Bft)
11.09.2013 18:35 9,5 C 81 % 1018,5 hPa 0,0 l/m 8,5 km/h (2 Bft) S-SO 157 6,4 C 6,2 C 12,9 km/h (3 Bft)
11.09.2013 18:40 9,3 C 82 % 1018,5 hPa 0,0 l/m 9,7 km/h (2 Bft) S-SO 157 6,4 C 4,7 C 10,3 km/h (2 Bft)
11.09.2013 18:45 9,2 C 82 % 1018,5 hPa 0,0 l/m 10,1 km/h (2 Bft) S-SO 157 6,3 C 4,1 C 5,5 km/h (1 Bft)
11.09.2013 18:50 9,1 C 84 % 1018,5 hPa 0,0 l/m 8,5 km/h (2 Bft) S 180 6,5 C 5,4 C 10,6 km/h (2 Bft)
11.09.2013 18:55 9,0 C 84 % 1018,5 hPa 0,0 l/m 6,9 km/h (2 Bft) SO 135 6,4 C 6,9 C 7,4 km/h (2 Bft)
11.09.2013 19:00 8,9 C 85 % 1018,4 hPa 0,0 l/m 6,8 km/h (2 Bft) S 180 6,5 C 7,0 C 6,9 km/h (2 Bft)
11.09.2013 19:05 8,8 C 87 % 1018,4 hPa 0,0 l/m 6,9 km/h (2 Bft) S-SW 202 6,8 C 6,8 C 6,3 km/h (2 Bft)
11.09.2013 19:10 8,8 C 87 % 1018,4 hPa 0,0 l/m 6,6 km/h (2 Bft) S 180 6,8 C 7,1 C 9,2 km/h (2 Bft)
11.09.2013 19:15 8,6 C 88 % 1018,4 hPa 0,0 l/m 4,8 km/h (1 Bft) S 180 6,7 C 7,7 C 3,5 km/h (1 Bft)
11.09.2013 19:20 8,5 C 88 % 1018,4 hPa 0,0 l/m 4,2 km/h (1 Bft) O 90 6,6 C 7,8 C 4,3 km/h (1 Bft)
11.09.2013 19:25 8,4 C 89 % 1018,4 hPa 0,7 l/m 3,5 km/h (1 Bft) O 90 6,7 C 8,0 C 2,1 km/h (1 Bft)
11.09.2013 19:30 8,3 C 90 % 1018,4 hPa 0,0 l/m 1,9 km/h (1 Bft) O-NO 67 6,8 C 8,0 C 0,0 km/h (0 Bft)
11.09.2013 19:35 8,2 C 90 % 1018,4 hPa 0,0 l/m 1,3 km/h (1 Bft) S-SO 157 6,7 C 7,8 C 3,9 km/h (1 Bft)
11.09.2013 19:40 8,1 C 90 % 1018,4 hPa 0,0 l/m 2,7 km/h (1 Bft) S-SO 157 6,6 C 7,7 C 4,2 km/h (1 Bft)
11.09.2013 19:45 8,2 C 90 % 1018,4 hPa 0,0 l/m 4,3 km/h (1 Bft) S 180 6,7 C 7,4 C 8,0 km/h (2 Bft)
11.09.2013 19:50 8,1 C 91 % 1018,4 hPa 0,0 l/m 4,3 km/h (1 Bft) SO 135 6,7 C 7,4 C 4,8 km/h (1 Bft)
11.09.2013 19:55 8,1 C 91 % 1018,4 hPa 0,0 l/m 4,5 km/h (1 Bft) S-SO 157 6,7 C 7,3 C 7,7 km/h (2 Bft)
11.09.2013 20:00 8,0 C 91 % 1018,1 hPa 0,0 l/m 5,0 km/h (1 Bft) S-SW 202 6,6 C 7,2 C 11,6 km/h (2 Bft)
11.09.2013 20:05 8,0 C 91 % 1018,1 hPa 0,0 l/m 5,3 km/h (1 Bft) S 180 6,6 C 7,1 C 6,3 km/h (2 Bft)
11.09.2013 20:10 8,1 C 91 % 1018,1 hPa 0,0 l/m 5,3 km/h (1 Bft) S-SO 157 6,7 C 7,4 C 6,6 km/h (2 Bft)
11.09.2013 20:15 8,0 C 91 % 1018,1 hPa 0,0 l/m 5,6 km/h (1 Bft) S 180 6,6 C 7,4 C 9,2 km/h (2 Bft)
11.09.2013 20:20 8,1 C 91 % 1018,2 hPa 0,0 l/m 5,6 km/h (1 Bft) S 180 6,7 C 7,5 C 7,6 km/h (2 Bft)
11.09.2013 20:25 8,2 C 91 % 1018,2 hPa 0,0 l/m 5,1 km/h (1 Bft) SO 135 6,8 C 7,7 C 7,9 km/h (2 Bft)
11.09.2013 20:30 8,1 C 91 % 1018,2 hPa 0,0 l/m 5,1 km/h (1 Bft) S-SO 157 6,7 C 7,7 C 7,9 km/h (2 Bft)
11.09.2013 20:35 7,8 C 90 % 1018,2 hPa 0,0 l/m 5,5 km/h (1 Bft) S-SW 202 6,3 C 7,6 C 7,4 km/h (2 Bft)
11.09.2013 20:40 7,6 C 90 % 1018,3 hPa 0,0 l/m 5,1 km/h (1 Bft) SO 135 6,1 C 7,4 C 5,3 km/h (1 Bft)
11.09.2013 20:45 7,4 C 90 % 1018,3 hPa 0,0 l/m 5,0 km/h (1 Bft) W-SW 247 5,9 C 7,2 C 4,3 km/h (1 Bft)
11.09.2013 20:50 7,3 C 90 % 1018,3 hPa 0,0 l/m 5,0 km/h (1 Bft) S 180 5,8 C 7,2 C 4,2 km/h (1 Bft)
11.09.2013 20:55 7,2 C 90 % 1018,3 hPa 0,0 l/m 5,3 km/h (1 Bft) S 180 5,7 C 7,1 C 10,9 km/h (2 Bft)
11.09.2013 21:00 7,4 C 90 % 1018,2 hPa 0,0 l/m 5,8 km/h (2 Bft) S-SO 157 5,9 C 6,9 C 8,4 km/h (2 Bft)
11.09.2013 21:05 7,3 C 90 % 1018,2 hPa 0,0 l/m 6,6 km/h (2 Bft) O-SO 112 5,8 C 6,6 C 6,0 km/h (2 Bft)
11.09.2013 21:10 7,3 C 90 % 1018,2 hPa 0,0 l/m 6,3 km/h (2 Bft) S 180 5,8 C 6,8 C 8,4 km/h (2 Bft)
11.09.2013 21:15 7,0 C 90 % 1018,2 hPa 0,0 l/m 5,8 km/h (2 Bft) S 180 5,5 C 6,8 C 6,3 km/h (2 Bft)
11.09.2013 21:20 6,8 C 91 % 1018,1 hPa 0,0 l/m 4,7 km/h (1 Bft) SW 225 5,4 C 6,9 C 3,2 km/h (1 Bft)
11.09.2013 21:25 6,9 C 91 % 1018,1 hPa 0,0 l/m 3,2 km/h (1 Bft) O 90 5,5 C 7,3 C 1,6 km/h (1 Bft)
11.09.2013 21:30 7,1 C 91 % 1018,1 hPa 0,0 l/m 2,6 km/h (1 Bft) S 180 5,7 C 7,3 C 0,0 km/h (0 Bft)
11.09.2013 21:35 7,1 C 91 % 1018,1 hPa 0,0 l/m 1,1 km/h (1 Bft) NO 45 5,7 C 7,2 C 0,0 km/h (0 Bft)
11.09.2013 21:39 7,1 C 92 % 1018,1 hPa 0,0 l/m 0,5 km/h (0 Bft) O-SO 112 5,9 C 7,1 C 0,0 km/h (0 Bft)
11.09.2013 21:44 7,1 C 92 % 1018,1 hPa 0,0 l/m 1,0 km/h (0 Bft) SO 135 5,9 C 7,1 C 3,7 km/h (1 Bft)
11.09.2013 21:49 7,1 C 92 % 1018,1 hPa 0,0 l/m 1,1 km/h (1 Bft) NO 45 5,9 C 7,1 C 1,8 km/h (1 Bft)
11.09.2013 21:54 7,1 C 92 % 1018,1 hPa 0,0 l/m 1,9 km/h (1 Bft) O 90 5,9 C 7,1 C 2,7 km/h (1 Bft)
11.09.2013 21:59 7,0 C 92 % 1018,7 hPa 0,0 l/m 1,9 km/h (1 Bft) S 180 5,8 C 7,0 C 2,7 km/h (1 Bft)
11.09.2013 22:04 7,1 C 92 % 1018,7 hPa 0,0 l/m 2,1 km/h (1 Bft) O 90 5,9 C 7,1 C 1,6 km/h (1 Bft)
11.09.2013 22:09 7,0 C 92 % 1018,7 hPa 0,0 l/m 1,9 km/h (1 Bft) O-NO 67 5,8 C 7,1 C 2,7 km/h (1 Bft)
11.09.2013 22:14 7,0 C 92 % 1018,7 hPa 0,0 l/m 1,0 km/h (0 Bft) O-NO 67 5,8 C 7,0 C 2,7 km/h (1 Bft)
11.09.2013 22:19 7,0 C 92 % 1018,7 hPa 0,0 l/m 1,1 km/h (1 Bft) O 90 5,8 C 7,0 C 0,0 km/h (0 Bft)
11.09.2013 22:24 6,9 C 92 % 1018,7 hPa 0,0 l/m 1,0 km/h (0 Bft) O-SO 112 5,7 C 7,0 C 0,0 km/h (0 Bft)
11.09.2013 22:29 7,1 C 92 % 1018,7 hPa 0,0 l/m 1,4 km/h (1 Bft) S 180 5,9 C 7,0 C 3,4 km/h (1 Bft)
11.09.2013 22:34 7,1 C 92 % 1018,7 hPa 0,0 l/m 2,3 km/h (1 Bft) O 90 5,9 C 7,1 C 2,6 km/h (1 Bft)
11.09.2013 22:35 7,1 C 92 % 1018,7 hPa 0,0 l/m 2,3 km/h (1 Bft) O 90 5,9 C 7,1 C 2,6 km/h (1 Bft)
11.09.2013 22:40 7,1 C 92 % 1018,3 hPa 0,0 l/m 2,3 km/h (1 Bft) NO 45 5,9 C 7,1 C 3,4 km/h (1 Bft)
11.09.2013 22:45 7,0 C 92 % 1018,3 hPa 0,0 l/m 1,8 km/h (1 Bft) NO 45 5,8 C 6,9 C 1,6 km/h (1 Bft)
11.09.2013 22:50 6,9 C 92 % 1018,3 hPa 0,0 l/m 1,6 km/h (1 Bft) NO 45 5,7 C 6,8 C 2,3 km/h (1 Bft)
11.09.2013 22:55 6,7 C 92 % 1018,3 hPa 0,0 l/m 0,8 km/h (0 Bft) O 90 5,5 C 6,6 C 2,1 km/h (1 Bft)
11.09.2013 23:00 6,6 C 92 % 1017,7 hPa 0,0 l/m 0,8 km/h (0 Bft) SO 135 5,4 C 6,5 C 2,1 km/h (1 Bft)
11.09.2013 23:05 6,4 C 92 % 1017,7 hPa 0,0 l/m 0,6 km/h (0 Bft) O-NO 67 5,2 C 6,3 C 1,9 km/h (1 Bft)
11.09.2013 23:09 6,6 C 92 % 1017,7 hPa 0,0 l/m 0,8 km/h (0 Bft) NO 45 5,4 C 6,3 C 1,6 km/h (1 Bft)
11.09.2013 23:15 6,6 C 92 % 1017,7 hPa 0,0 l/m 0,8 km/h (0 Bft) O-SO 112 5,4 C 6,3 C 0,0 km/h (0 Bft)
11.09.2013 23:20 6,6 C 92 % 1017,7 hPa 0,0 l/m 0,5 km/h (0 Bft) O 90 5,4 C 6,3 C 0,0 km/h (0 Bft)
11.09.2013 23:25 6,5 C 93 % 1017,7 hPa 0,0 l/m 0,5 km/h (0 Bft) N 360 5,5 C 6,3 C 0,0 km/h (0 Bft)
11.09.2013 23:30 6,5 C 93 % 1017,7 hPa 0,0 l/m 0,6 km/h (0 Bft) O 90 5,5 C 6,3 C 1,6 km/h (1 Bft)
11.09.2013 23:35 6,8 C 93 % 1017,7 hPa 0,0 l/m 1,0 km/h (0 Bft) O 90 5,7 C 6,4 C 2,4 km/h (1 Bft)
11.09.2013 23:40 6,9 C 93 % 1017,4 hPa 0,0 l/m 1,0 km/h (0 Bft) O-NO 67 5,8 C 6,4 C 2,6 km/h (1 Bft)
11.09.2013 23:45 7,1 C 92 % 1017,4 hPa 0,0 l/m 1,8 km/h (1 Bft) NO 45 5,9 C 6,7 C 1,9 km/h (1 Bft)
11.09.2013 23:50 7,1 C 93 % 1017,4 hPa 0,0 l/m 1,8 km/h (1 Bft) NO 45 6,0 C 6,8 C 1,9 km/h (1 Bft)
11.09.2013 23:55 7,2 C 92 % 1017,4 hPa 0,0 l/m 1,0 km/h (0 Bft) O-NO 67 6,0 C 6,9 C 2,1 km/h (1 Bft)
_ Min-Zeit 06:50 12:00 23:55 - 08:20 - - 12:30 18:45 23:25
Minimum _ 5,5 C 38 % 1017,4 hPa - 0,0 km/h (0 Bft) - - 3,2 C 4,1 C 0,0 km/h (0 Bft)
_ Max-Zeit 11:40 08:05 00:55 19:25 15:45 - - 08:30 11:55 18:30
Maximum _ 19,0 C 97 % 1019,6 hPa 0,7 l/m 12,2 km/h
S-SW (2 Bft)
- - 11,9 C 18,0 C 26,9 km/h
S-SO (4 Bft)
Durchschnitt _ 10,2 C 79 % 1018,6 hPa #2,7 l/m 4,5 km/h (1 Bft) S - 6,2 C 9,6 C 6,1 km/h (2 Bft)